Terminal Aerodrome Forecast
Issued by NWS

Home | Current Version | Previous Version | Graphics & Text | Print | Product List | Glossary On
Versions: 1 2 3 4 5 6 7 8 9 10 11 12 13 14 15 16 17 18 19 20 21 22 23 24 25 26 27 28 29 30 31
000
FTUS42 KMHX 231100 RRA
TAFPGV
TAF
KPGV 231142Z 2312/2412 00000KT 1/2SM FG OVC002
     FM231600 03003KT 3SM BR OVC005
     FM232200 11005KT 2SM -RA BR OVC007
     FM240900 17005KT 3/4SM -DZ BR OVC004
      AMD LTD TO CLD VIS AND WIND=

USA.gov is the U.S. government's official web portal to all federal, state and local government web resources and services.